Location: Fort Worth, Tx
(32.7431°N, 97.3695°W)
Time: 00:39:35
(UTC-04:00)

Vanguard 2 - Pass Details

Date: 02 March 2024
Orbit: 552 x 2916 km, 32.9° (Epoch: 24 April)

Event Time Altitude Azimuth Distance (km) Brightness Sun altitude
Rises 22:08:59 0° 278° (W) 4,475 12.5 -34.4°
Reaches altitude 10° 22:11:29 10° 278° (W) 3,756 11.8 -34.9°
Maximum altitude 22:22:01 84° 191° (S) 2,198 9.5 -37.0°
Enters shadow 22:24:09 71° 118° (ESE) 2,401 9.6 -37.4°
